Regional Weather Roundup
Issued by NWS Newport/Morehead, NC

Current Version | Previous Version | Text Only | Print | Product List | Glossary On
Versions: 1 2 3 4 5 6 7 8 9 10 11 12 13 14 15 16 17 18 19 20 21 22 23 24 25 26 27 28 29 30 31 32 33 34 35 36 37 38 39 40 41 42 43 44 45 46 47 48 49 50
000
ASUS42 KMHX 031813
RWRMHX
WEATHER ROUNDUP FOR EASTERN NORTH CAROLINA
NATIONAL WEATHER SERVICE NEWPORT/MOREHEAD CITY NC
200 PM EDT FRI JUL 03 2015

NOTE: "FAIR" INDICATES FEW OR NO CLOUDS BELOW 12,000 FEET
WITH NO SIGNIFICANT WEATHER AND/OR OBSTRUCTIONS TO VISIBILITY

NCZ015>017-031-032-045>047-102-103-031900-
NORTH COAST

CITY           SKY/WX    TMP DP  RH WIND       PRES   REMARKS
EDENTON          N/A     82  71  68 E6        29.96F
ELIZABETH CITY PTSUNNY   82  69  64 SE7       29.96F
KITTY HAWK     PTCLDY    85  71  63 NE5       29.96F
MANTEO         CLOUDY    77  71  80 E9        29.98S

$$

NCZ045>047-081-094-103-104-031900-
CENTRAL COAST

CITY           SKY/WX    TMP DP  RH WIND       PRES   REMARKS
FRISCO         MOSUNNY   80  71  74 SW8       29.98F
SWANQUARTER      N/A     84 N/A N/A S7        29.94S

$$

NCZ095-097-098-100-101-031900-
SOUTHERN COAST

CITY           SKY/WX    TMP DP  RH WIND       PRES   REMARKS
BEAUFORT       PTSUNNY   82  75  79 S14       29.97F
CEDAR ISLAND     N/A     84 N/A N/A CALM      30.00F
JACKSONVILLE   NOT AVBL
PINEY ISLAND   MOCLDY   N/A N/A N/A SW13      29.97F
WILMINGTON     MOSUNNY   83  73  72 W5        29.96F


$$

NCZ011>013-027>030-043-044-078>080-089-090>093-098-031900-
COASTAL PLAIN

CITY           SKY/WX    TMP DP  RH WIND       PRES   REMARKS
AHOSKIE        SUNNY     82  69  64 SE3       29.95F
CLINTON        CLOUDY    78  73  83 S6        29.96F
ELIZABETHTOWN  CLOUDY    80  74  80 S7        29.96F
GOLDSBORO      CLOUDY    79  72  78 S7        29.94F
GREENVILLE     PTSUNNY   82  72  69 S7        29.97F
HAVELOCK       PTSUNNY   86  71  60 SW8       29.96F
KENANSVILLE    CLOUDY    79  70  74 S5        29.97F
KINSTON        PTSUNNY   82  70  65 S8        29.96F
NEW BERN       MOSUNNY   85  71  63 S7        29.96F
RICHLANDS      PTSUNNY   82  70  65 W10       29.96F
ROCKY MOUNT    MOSUNNY   84  71  65 VRB6      29.94F
WASHINGTON     MOSUNNY   81  71  71 SE5       29.96F
WHITEVILLE     LGT RAIN  76  73  91 SW3       29.96F

$$

AMZ130-135-150-152-154-156-158-170-250-252-270-ANZ085-086-088-633-658-670-031900-
MARINE OBSERVATIONS

STATION/POSITION TIME  TEMP    WIND        PRES    WAVE   SWELL
                       AIR SEA DIR/SP/G            HT/PER HT/PER
                 (UTC) (F)     (DEG/KT/KT) (MB)    (FT/S) (FT/S)
CHESAPEAKE LIGHT 1800   74      90/  6/  7 1016.0
64 E VA BEACH    1750   75 78   60/  4/  6 1014.9    5/ 7   5/ 7
DUCK             1700   76 74   50/  5/  6 1014.5
2 E DUCK         1711      77                N/A     2/ 9
OREGON INLET     1700   77 75   60/  5/  8 1015.3
13E OREGON INLT  1800      72                N/A     4/ 8
HATTERAS CG      1700   79 78  210/  7/  9 1015.3
DIAMOND BUOY     1750   77 82  260/ 10/ 12 1015.2    4/ 8   3/ 8
CAPE LOOKOUT     1800   82     220/  9/ 13 1014.7
BEAUFORT LAB     1700   80 80  220/  5/ 10 1014.7
30 SE NEW RVR IN 1708   80 80  240/ 17/ 23 1016.1
27 SE WRIGHTSVLE 1700      80  260/ 16/ 17   N/A
5 SE WRIGHTSVLE  1708   79 79  220/ 14/ 16 1015.3
225 S CAPE HAT   1750   79 80  240/ 12/ 14 1019.4    7/ 7   5/ 7
41 SE CHARLESTON 1750   81 82  230/ 17/ 21 1016.0    5/ 8   3/ 8

$$



USA.gov is the U.S. government's official web portal to all federal, state and local government web resources and services.